FW3072 Weather Reports


time (UTC)temp
C
wind
direction
speed
KPH
gust
KPH
rain 1hr
cm
rain 24hr
cm
rain mn
cm
humidity
%
barometer
mb
20260510183203 12 206 3.2 11.3 0.00 0.38 0.13 53 1016.5
20260510182202 13 238 3.2 16.1 0.00 0.38 0.13 51 1016.4
20260510181203 14 299 9.7 20.9 0.00 0.38 0.13 42 1016.3
20260510180202 15 310 8.0 22.5 0.00 0.38 0.13 43 1016.2
20260510175203 15 331 11.3 25.7 0.00 0.38 0.13 44 1016.3
20260510174203 14 341 12.9 27.4 0.00 0.38 0.13 40 1016.2
20260510173202 14 326 8.0 19.3 0.00 0.38 0.13 43 1016.1
20260510172205 13 305 11.3 22.5 0.00 0.38 0.13 43 1016.0
20260510171202 13 279 8.0 20.9 0.00 0.38 0.13 44 1015.9
20260510170202 13 292 9.7 27.4 0.00 0.38 0.13 46 1015.9
20260510165202 13 297 12.9 24.1 0.00 0.38 0.13 44 1016.0
20260510164202 13 303 16.1 30.6 0.00 0.38 0.13 42 1016.1
20260510163223 13 289 12.9 30.6 0.00 0.38 0.13 46 1016.0
20260510162202 13 340 8.0 29.0 0.00 0.38 0.13 46 1016.0
20260510161203 12 301 11.3 25.7 0.00 0.38 0.13 47 1016.1
20260510160202 12 281 16.1 32.2 0.00 0.38 0.13 49 1016.1
20260510155205 12 301 8.0 32.2 0.00 0.38 0.13 51 1016.0
20260510154202 12 293 11.3 24.1 0.00 0.38 0.13 52 1016.0
20260510153202 12 283 9.7 22.5 0.00 0.38 0.13 52 1016.0
20260510152204 12 306 14.5 25.7 0.00 0.38 0.13 51 1015.9
20260510151226 11 298 9.7 25.7 0.00 0.38 0.13 54 1015.8
20260510150203 11 284 9.7 24.1 0.00 0.38 0.13 56 1015.7
20260510145224 11 260 6.4 20.9 0.00 0.38 0.13 57 1015.6
20260510144206 11 276 9.7 22.5 0.00 0.38 0.13 59 1015.5
20260510143246 10 296 9.7 22.5 0.00 0.38 0.13 59 1015.3
20260510142203 10 289 9.7 20.9 0.00 0.38 0.13 62 1015.1
20260510141202 10 277 8.0 19.3 0.00 0.38 0.13 63 1015.0
20260510140202 9 279 11.3 16.1 0.00 0.38 0.13 65 1014.9
20260510134202 8 299 12.9 20.9 0.00 0.38 0.13 66 1014.8
20260510133224 8 305 11.3 20.9 0.00 0.38 0.13 66 1014.6
20260510132224 8 334 8.0 19.3 0.00 0.38 0.13 66 1014.4
20260510131202 7 309 9.7 17.7 0.00 0.38 0.13 69 1014.4
20260510130223 7 310 6.4 19.3 0.00 0.38 0.13 70 1014.2
20260510125202 7 305 9.7 19.3 0.00 0.38 0.13 70 1014.2
20260510124202 7 263 8.0 17.7 0.00 0.38 0.13 72 1014.1
20260510123203 7 290 9.7 17.7 0.00 0.38 0.13 74 1014.1
20260510122203 7 321 4.8 16.1 0.00 0.38 0.13 74 1013.9
20260510121202 7 321 4.8 14.5 0.00 0.38 0.13 79 1013.7
20260510120202 7 305 4.8 8.0 0.00 0.38 0.13 81 1013.5
20260510115203 7 287 1.6 6.4 0.00 0.38 0.13 81 1013.4
20260510114202 7 270 1.6 9.7 0.00 0.38 0.13 84 1013.2
20260510113203 6 328 3.2 8.0 0.00 0.38 0.13 85 1013.0
20260510112202 6 295 0.0 6.4 0.00 0.38 0.13 85 1012.8
20260510111223 6 293 3.2 6.4 0.00 0.38 0.13 86 1012.8
20260510110203 6 286 1.6 4.8 0.00 0.38 0.13 87 1012.5
20260510105202 6 286 3.2 4.8 0.00 0.38 0.13 87 1012.4
20260510104203 6 286 0.0 9.7 0.00 0.38 0.13 87 1012.1
20260510103202 6 299 0.0 1.6 0.00 0.38 0.13 87 1011.8
20260510102203 6 300 0.0 3.2 0.00 0.38 0.13 87 1011.7
20260510101203 6 299 1.6 8.0 0.00 0.38 0.13 87 1011.2
20260510100203 6 310 3.2 11.3 0.00 0.38 0.13 88 1011.1
20260510095202 6 304 8.0 16.1 0.00 0.38 0.13 90 1011.0
20260510094204 6 338 0.0 11.3 0.00 0.38 0.13 90 1010.7
20260510093202 6 313 1.6 4.8 0.00 0.38 0.13 90 1010.8
20260510092203 7 295 3.2 6.4 0.00 0.38 0.13 90 1010.7
20260510091225 7 289 0.0 0.0 0.00 0.38 0.13 90 1010.7
20260510090202 7 289 0.0 3.2 0.00 0.38 0.13 90 1010.5
20260510085223 7 289 0.0 1.6 0.05 0.38 0.13 90 1010.0
20260510084203 7 289 0.0 0.0 0.05 0.38 0.13 90 1009.8
20260510083202 7 289 0.0 6.4 0.03 0.36 0.10 90 1010.0
20260510082202 7 282 0.0 4.8 0.03 0.36 0.10 90 1010.0
20260510081202 7 318 1.6 6.4 0.00 0.33 0.08 91 1010.3
20260510080202 7 318 0.0 3.2 0.00 0.33 0.08 91 1009.6
20260510075203 8 318 0.0 4.8 0.08 0.33 0.08 91 1009.4
20260510074202 8 355 3.2 4.8 0.08 0.33 0.08 91 1009.5
20260510073204 8 354 3.2 4.8 0.05 0.30 0.05 91 1009.0
20260510072202 8 296 0.0 4.8 0.05 0.30 0.05 91 1009.0
20260510071202 8 296 0.0 1.6 0.03 0.28 0.03 92 1008.8
20260510070223 9 297 3.2 6.4 0.00 0.25 0.00 92 1008.9
20260510065202 9 302 0.0 0.0 0.00 0.25 0.00 92 1008.7
20260510064202 9 301 0.0 3.2 0.00 0.25 0.00 92 1008.4
20260510063225 9 300 0.0 4.8 0.00 0.25 0.00 92 1008.5
20260510062204 10 301 0.0 0.0 0.00 0.25 0.00 92 1008.3
20260510061202 10 301 0.0 0.0 0.00 0.25 0.00 92 1008.3
20260510060203 10 301 0.0 0.0 0.00 0.25 0.00 92 1008.2
20260510055202 10 300 0.0 11.3 0.00 0.25 0.00 92 1008.3
20260510054202 10 307 3.2 6.4 0.00 0.25 0.00 92 1008.2
20260510053202 9 291 0.0 1.6 0.00 0.25 0.00 92 1008.1
20260510052223 9 292 0.0 0.0 0.00 0.25 0.00 92 1008.1
20260510051202 10 292 0.0 0.0 0.00 0.25 0.00 92 1007.8
20260510050203 10 292 0.0 0.0 0.00 0.25 0.00 92 1007.5
20260510045203 10 292 0.0 3.2 0.00 0.25 0.00 92 1007.2
20260510044205 10 296 1.6 6.4 0.00 0.25 0.00 91 1007.7
20260510043202 10 216 1.6 4.8 0.00 0.25 0.00 91 1007.3
20260510042224 10 217 0.0 0.0 0.00 0.25 0.00 91 1006.9
20260510041202 10 217 0.0 0.0 0.00 0.25 0.00 91 1006.6
20260510040203 10 217 0.0 1.6 0.00 0.25 0.00 91 1006.3
20260510035202 10 216 0.0 4.8 0.00 0.25 0.25 91 1006.4
20260510034203 10 216 0.0 11.3 0.00 0.25 0.25 91 1006.3
20260510033202 10 280 0.0 3.2 0.00 0.25 0.25 91 1006.5
20260510032205 10 279 0.0 3.2 0.00 0.25 0.25 91 1006.5
20260510031202 10 280 0.0 0.0 0.00 0.25 0.25 91 1006.4
20260510030202 10 279 0.0 3.2 0.00 0.25 0.25 91 1006.5
20260510025202 10 280 0.0 4.8 0.00 0.25 0.25 90 1006.3
20260510023223 10 280 0.0 0.0 0.00 0.25 0.25 90 1006.1
20260510022202 11 280 0.0 3.2 0.00 0.25 0.25 90 1005.8
20260510021202 11 303 0.0 8.0 0.00 0.25 0.25 90 1005.7
20260510020203 11 163 0.0 8.0 0.00 0.25 0.25 90 1005.8
20260510015202 11 261 0.0 6.4 0.00 0.25 0.25 90 1005.8
20260510014206 11 242 0.0 4.8 0.00 0.25 0.25 90 1005.6
20260510013202 11 242 1.6 6.4 0.00 0.25 0.25 90 1005.6
20260510012202 10 249 0.0 4.8 0.00 0.25 0.25 90 1005.5
20260510011202 10 198 4.8 8.0 0.00 0.25 0.25 90 1005.4
20260510010224 10 181 0.0 3.2 0.00 0.25 0.25 90 1005.4
20260510005203 10 182 0.0 3.2 0.00 0.25 0.25 90 1005.1
20260510004202 11 181 0.0 3.2 0.00 0.25 0.25 90 1004.7
20260510003203 11 181 0.0 4.8 0.00 0.25 0.25 89 1004.7
20260510002202 11 220 1.6 6.4 0.00 0.25 0.25 89 1004.8
20260510001225 11 221 0.0 4.8 0.00 0.25 0.25 89 1004.7
20260510000204 11 220 3.2 4.8 0.00 0.25 0.25 88 1004.8
20260509235202 11 212 4.8 9.7 0.20 0.25 0.25 88 1004.4
20260509234202 11 281 0.0 4.8 0.20 0.25 0.25 87 1004.5
20260509233203 11 285 3.2 19.3 0.15 0.20 0.20 86 1005.2
20260509232203 11 299 11.3 25.7 0.10 0.15 0.15 84 1005.3
20260509231202 12 289 8.0 27.4 0.05 0.10 0.10 82 1005.4
20260509230203 13 267 16.1 48.3 0.03 0.08 0.08 77 1005.8
20260509225203 16 242 4.8 16.1 0.00 0.00 0.00 74 1003.8
20260509224204 16 213 0.0 0.0 0.00 0.00 0.00 72 1002.9
20260509223202 16 213 0.0 0.0 0.00 0.00 0.00 72 1002.6
20260509222202 16 213 0.0 0.0 0.00 0.00 0.00 70 1002.4
20260509221202 16 213 0.0 0.0 0.00 0.00 0.00 71 1002.5
20260509220202 16 223 0.0 0.0 0.00 0.00 0.00 70 1002.6
20260509215224 16 223 0.0 0.0 0.00 0.00 0.00 70 1002.9
20260509214203 16 223 0.0 4.8 0.00 0.00 0.00 70 1002.9
20260509213203 16 224 3.2 4.8 0.00 0.00 0.00 70 1002.7
20260509212202 16 225 0.0 4.8 0.00 0.00 0.00 70 1002.8
20260509211203 16 211 4.8 12.9 0.00 0.00 0.00 69 1003.3
20260509210202 17 246 3.2 4.8 0.00 0.00 0.00 71 1003.3
20260509205202 17 223 3.2 9.7 0.00 0.00 0.00 71 1003.3
20260509204225 17 205 1.6 6.4 0.00 0.00 0.00 71 1003.4
20260509203202 17 252 3.2 14.5 0.00 0.00 0.00 70 1003.3
20260509202203 17 220 3.2 11.3 0.00 0.00 0.00 68 1003.5
20260509201223 17 245 3.2 8.0 0.00 0.00 0.00 68 1003.5
20260509200202 17 254 4.8 12.9 0.00 0.00 0.00 67 1003.6
20260509195202 18 203 4.8 11.3 0.00 0.00 0.00 65 1003.7
20260509194202 18 256 4.8 12.9 0.00 0.00 0.00 67 1003.5
20260509193202 18 220 6.4 19.3 0.00 0.00 0.00 67 1003.8
20260509192203 18 268 6.4 20.9 0.00 0.00 0.00 69 1004.0
20260509191223 17 291 9.7 20.9 0.00 0.00 0.00 68 1004.2
20260509190202 17 209 4.8 12.9 0.00 0.00 0.00 67 1004.4
20260509185202 17 218 4.8 14.5 0.00 0.00 0.00 68 1004.5
20260509184203 18 269 8.0 19.3 0.00 0.00 0.00 69 1004.6